Location: Paderno d�Adda
(45.6667°N, 9.4333°E)
Time: 04:49:34
(UTC+00:00)

CENTAUR R/B - Pass Details

Date: 24 January 2021
Orbit: 742 x 1446 km, 63.5° (Epoch: 02 March)

Event Time Altitude Azimuth Distance (km) Brightness Sun altitude
Rises 05:52:04 0° 215° (SW) 3,368 5.1 -10.6°
Reaches altitude 10° 05:54:21 10° 215° (SW) 2,508 4.5 -10.2°
Maximum altitude 06:00:11 88° 127° (SE) 982 2.6 -9.2°
Drops below altitude 10° 06:07:14 10° 39° (NE) 3,000 5.3 -8.1°
Sets 06:10:11 0° 39° (NE) 4,074 6.0 -7.6°
